SCP
0 0 0 0 0 0 0 0 0 -0 0 -0 0 -0 0 0 0 -0 0 0 0 0 0 0 0 0 0 0 0 0 0 0 0 0 0 0 0 0 0 0 0 0 0
0 0 0 0 -0 -0 0 0 0 0 0 -0 0 0 -0 0 0 0 0 0 0 0 0 0 0 0 0 0 0 0 0 0 0 0 0 0 0 0 0 0 0 0 0
0 0 0 0 0 0 0 0 0 0 0 0 0 0 0 0 -0 0 0 0 0 0 0 0 0 0 0 0 0 0 0 0 0 0 0 0 0 0 0 0 0 0 0
0 0 0 0 -0 0 0 0 0 0 -0 -0 0 0 0 -0 0 0 0 0 0 0 0 0 0 1 1 0 1 0 0 0 0 0 0 0 0 0 0 0 0 0 0
0 0 0 0 0 0 0 0 0 0 0 0 0 0 0 0 0 -0 0 0 0 0 0 0 0 0 0 1 1 0 0 0 0 0 0 0 0 1 1 0 0 0 0
0 0 -0 0 0 0 0 -0 0 0 0 0 0 -0 0 0 0 0 0 0 0 0 0 0 0 0 0 0 0 0 0 0 0 0 1 1 1 1 1 1 1 1 0
0 0 -0 0 -0 0 0 0 0 0 0 0 -0 0 0 0 0 0 0 0 -0 0 0 0 0 0 0 0 0 0 0 0 0 0 1 1 1 1 1 1 1 1 1
0 0 0 0 0 0 0 0 0 0 -0 0 0 0 0 0 0 0 -0 0 0 0 0 0 0 0 0 0 0 0 0 0 0 0 1 1 1 1 0 0 0 0 0
0 0 0 -0 0 0 -0 -0 0 0 0 0 0 0 0 0 0 0 0 0 0 0 0 0 0 0 0 0 0 0 0 0 0 0 0 1 1 1 0 0 0 0 0
-0 -0 0 0 0 0 0 -0 0 0 0 0 0 0 0 0 0 -0 -0 0 0 0 0 0 0 0 0 0 0 0 0 0 0 0 0 0 0 0 0 0 1 0 0
0 0 0 0 0 0 0 0 0 0 0 -0 0 0 0 0 0 0 -0 -0 0 -0 -0 0 0 -0 -0 -0 -0 -0 -0 -0 0 0 0 0 0 0 0 0 1 1 1
-0 0 -0 0 0 0 -0 0 0 0 0 -0 -0 -0 0 -0 -0 0 0 0 0 0 -0 0 -0 -0 -0 -0 -0 -0 -0 0 -0 -0 0 0 0 0 0 0 0 0 0
0 -0 -0 0 0 0 -0 0 -0 0 0 0 0 -0 0 -0 0 0 0 0 0 0 0 0 -0 0 0 -0 -0 -0 0 -0 0 -0 0 0 0 0 0 0 0 0 0
0 -0 0 -0 0 -0 0 0 0 0 0 -0 0 0 -0 -0 0 0 0 0 0 -0 -0 0 -0 -0 0 -0 -0 -0 -0 -0 0 0 0 0 0 0 0 0 0 0 0
0 0 0 -0 -0 0 0 -0 0 0 0 -0 -0 0 -0 -0 0 -0 -0 0 0 -0 0 -0 -0 -0 -0 0 -0 0 0 -0 0 -0 -0 0 0 0 0 0 0 0 0
0 0 0 0 0 -0 0 -0 -0 0 -0 0 -0 -0 -0 -0 0 -0 -0 0 0 0 -0 -0 0 0 -0 0 0 0 0 0 -0 -0 -0 -0 0 0 0 0 0 0 0
0 0 0 0 0 -0 -0 0 -0 0 0 -0 -0 0 0 -0 0 0 -0 -0 -0 -0 -0 0 -0 -0 -0 0 0 0 0 0 0 -0 -0 -0 0 0 0 0 0 0 0
0 0 0 0 0 0 -0 0 -0 0 0 -0 -0 -0 -0 0 0 -0 -0 0 0 0 0 -0 -0 -0 0 0 -0 0 0 0 -0 0 -0 0 0 0 0 0 0 0 0
0 0 0 0 0 -0 -0 0 -0 0 0 -0 0 -0 -0 -0 -0 -0 0 -0 -0 0 -0 -0 -0 -0 -0 -0 -0 -0 -0 -0 -0 0 0 0 0 0 0 0 0 0 0
0 0 0 0 0 0 0 -0 0 -0 -0 0 0 0 -0 0 -0 0 0 0 0 0 0 -0 -0 -0 -0 -0 0 -0 0 0 0 0 0 0 0 0 0 0 0 0 0
1 0 0 0 0 0 0 0 0 0 0 -0 -0 0 0 0 0 0 0 0 0 0 0 0 -0 -0 -0 0 0 0 -0 0 0 0 0 0 0 0 0 0 0 0 0
1 1 1 1 1 0 0 0 0 0 0 0 -0 -0 -0 0 0 0 0 -0 -0 0 0 0 0 0 -0 0 0 0 0 0 -0 0 0 0 0 0 0 1 0 0 0
1 2 1 1 1 1 0 0 0 0 1 1 0 0 -0 0 0 0 0 0 0 0 0 0 0 0 -0 0 1 1 0 0 0 0 0 0 0 0 0 0 0 0 0
2 2 2 2 2 1 1 0 0 1 1 1 1 1 1 0 0 1 1 0 0 0 0 0 0 0 0 0 0 0 1 0 0 1 1 0 0 0 0 0 0 0 0
2 2 2 2 2 2 1 0 0 1 1 1 1 1 1 1 1 1 1 1 1 1 0 0 0 0 0 0 0 0 0 0 0 0 0 0 0 0 0 0 0 0 0
2 2 1 1 2 2 1 1 0 1 1 1 1 1 1 1 1 1 2 2 1 1 1 0 1 0 0 0 0 0 0 0 0 0 0 0 0 0 0 0 0 0 0
Wind_Speed_500mb
23 22 21 13 19 13 10 16 14 19 21 27 19 17 14 16 14 15 10 13 13 12 13 12 10 11 12 12 13 14 14 16 16 17 17 18 17 17 17 16 15 15 14
24 21 20 17 4 8 20 18 33 14 22 15 17 15 14 11 14 10 4 19 17 15 13 11 10 10 10 11 11 12 13 15 16 16 17 17 18 18 18 18 18 17 16
11 15 15 17 10 10 18 11 24 15 13 15 14 13 12 12 11 11 8 10 15 18 18 15 15 14 13 12 12 13 14 16 17 17 19 19 19 21 21 21 21 21 20
14 18 14 9 12 8 10 7 15 15 11 19 15 14 9 8 8 9 5 6 5 6 17 16 14 15 15 14 14 16 17 18 19 20 20 22 23 24 24 24 24 23 22
17 11 14 8 18 13 0 16 14 17 13 12 14 13 10 7 6 8 5 7 4 8 1 10 19 22 15 14 15 16 18 19 20 21 24 26 26 25 24 24 24 24 25
17 16 13 11 18 11 6 20 12 4 16 5 9 9 7 6 6 4 4 7 4 6 4 4 12 15 18 14 14 16 17 20 21 23 24 25 25 25 25 25 26 26 27
8 18 10 13 17 10 15 13 14 8 6 2 10 6 4 7 6 5 5 6 5 7 2 2 10 1 14 15 13 14 17 19 20 22 24 25 26 26 27 28 30 30 30
11 11 8 10 19 15 9 8 10 8 7 3 8 10 15 14 9 8 4 5 5 4 2 3 1 2 6 3 8 15 16 18 21 24 28 31 32 32 32 35 36 36 37
8 14 20 15 13 18 10 12 13 6 7 1 2 13 13 5 13 8 8 6 7 5 4 2 4 2 1 3 11 20 16 20 25 30 32 36 37 35 35 40 43 44 44
16 9 10 6 13 7 17 11 11 3 6 10 9 7 11 11 14 15 11 3 9 7 3 3 1 2 2 9 13 14 23 24 26 32 35 39 41 36 40 45 49 50 43
14 14 13 12 17 17 20 11 11 12 6 5 7 8 6 6 8 15 19 13 10 7 5 5 3 2 3 3 6 15 17 23 30 35 38 41 40 41 45 49 52 48 44
13 17 15 18 12 9 9 14 14 12 9 13 5 7 6 6 10 10 7 5 10 6 4 3 4 1 2 7 12 23 24 27 36 41 42 43 44 44 49 52 51 47 42
18 22 13 15 13 19 11 16 17 16 15 11 16 14 5 7 5 7 11 4 2 3 2 2 1 2 5 8 18 29 30 37 41 46 44 47 47 47 52 53 45 39 32
13 17 13 17 17 16 15 18 13 16 16 15 17 19 9 10 8 6 12 6 10 11 8 9 8 8 12 15 25 32 26 36 43 42 46 54 50 51 53 46 38 30 30
14 20 16 18 19 17 17 16 15 17 13 19 17 24 22 11 12 12 10 10 15 18 10 7 5 14 14 17 25 33 30 31 37 40 48 56 54 52 50 41 35 32 37
20 34 22 16 16 18 19 17 19 19 20 17 17 23 22 20 16 19 16 15 14 18 24 20 19 21 28 32 28 37 36 34 35 37 49 49 56 51 50 43 35 36 41
30 20 15 30 21 20 20 22 26 13 20 22 27 21 24 33 22 20 21 22 22 21 27 27 27 27 32 43 38 39 34 31 33 40 47 53 52 52 50 50 40 42 49
32 33 28 31 28 27 27 26 24 23 25 22 23 25 27 25 30 33 30 25 24 26 25 34 33 33 32 34 40 44 32 29 29 31 43 48 48 51 52 52 50 51 48
31 32 33 36 31 31 32 32 31 28 28 26 25 25 26 29 34 30 28 27 26 25 23 25 30 29 30 30 31 32 35 33 29 31 38 39 46 47 49 48 49 51 47
36 35 37 40 36 33 33 32 34 36 36 33 32 31 31 31 34 32 31 32 32 32 27 28 29 28 27 27 28 28 30 31 32 33 29 31 41 45 49 43 42 51 46
43 43 41 42 47 43 40 41 40 38 44 41 36 35 36 38 38 39 31 32 30 32 25 29 30 29 27 25 23 28 34 35 35 30 30 30 33 40 49 44 42 53 49
58 53 50 50 49 46 47 51 48 41 45 45 40 42 39 43 47 43 39 36 42 40 43 35 33 33 39 38 31 32 33 35 39 26 34 42 27 30 30 38 44 58 48
44 56 62 57 57 60 53 56 60 59 51 46 47 49 39 42 49 48 46 48 47 49 51 49 51 47 45 41 42 44 37 37 42 42 35 34 27 31 29 38 45 54 51
49 47 54 62 63 63 62 60 61 67 68 68 62 52 55 58 55 45 52 50 54 54 55 56 58 57 54 49 43 40 43 44 43 40 36 43 37 37 33 42 47 51 47
47 56 55 54 60 65 65 66 66 68 68 74 76 77 76 65 65 63 61 56 58 59 50 54 56 57 56 53 51 51 48 43 50 44 35 39 40 36 33 41 49 41 52
42 50 51 51 57 60 62 65 70 67 62 68 69 76 80 86 88 80 77 75 79 81 63 58 58 57 59 62 60 59 63 56 51 54 39 39 38 37 41 35 36 51 50
Wind_Direction_500mb
117 122 127 134 118 125 102 81 78 86 82 88 81 86 99 109 100 92 78 76 79 78 76 73 66 63 57 52 48 41 37 37 36 35 32 30 29 27 28 22 16 16 14
122 122 129 132 173 133 97 130 72 88 104 102 93 94 90 91 108 88 29 38 51 57 57 59 57 53 48 47 48 47 48 48 45 44 41 37 31 27 23 17 12 10 7
128 132 122 133 107 116 92 88 107 91 111 85 102 107 97 96 91 91 91 360 9 34 33 45 52 57 59 57 60 64 60 56 51 46 41 37 31 27 22 16 12 8 4
142 113 130 155 134 141 122 110 86 114 86 86 88 92 106 103 114 117 124 113 128 295 4 29 47 53 56 63 70 70 67 63 57 49 41 35 30 23 17 12 7 1 356
167 144 145 172 137 120 127 118 113 99 122 131 114 102 110 92 134 91 85 110 102 96 25 3 54 38 44 61 72 72 70 65 55 45 37 30 24 17 11 7 1 354 347
151 150 150 137 137 134 172 141 130 144 95 115 120 97 94 106 117 87 116 122 118 85 101 50 3 6 24 53 64 70 66 56 46 37 29 20 11 4 359 354 351 348 344
190 150 169 166 166 136 120 113 96 111 109 5 167 198 110 145 114 145 112 118 80 110 154 350 77 163 342 45 57 62 55 45 33 23 12 1 352 346 340 336 331 327 324
193 188 131 172 186 163 175 173 203 165 107 9 337 291 170 148 110 112 133 145 157 137 110 63 288 342 121 0 339 39 28 21 12 0 353 348 342 337 336 335 334 329 322
181 172 191 215 185 183 163 133 161 255 151 66 113 2 8 112 117 120 103 135 120 127 129 74 128 272 326 153 3 347 358 358 350 346 345 342 338 336 336 337 334 330 326
186 193 186 174 165 219 160 169 204 186 120 135 112 34 40 12 348 118 112 113 133 138 152 140 279 223 317 21 314 332 335 339 345 345 346 345 341 339 335 332 331 333 336
189 179 198 202 187 181 195 192 196 189 178 164 144 129 84 34 6 19 122 116 120 121 107 84 167 187 331 353 350 312 338 343 345 346 346 345 346 338 335 336 337 339 340
190 181 190 203 198 215 203 202 211 214 214 209 193 190 247 90 259 336 80 69 109 130 110 119 116 152 324 331 317 325 333 333 340 341 343 347 346 342 343 341 340 340 341
190 216 226 198 205 202 200 196 219 194 231 211 223 210 239 294 30 350 2 157 30 119 157 163 109 295 313 331 301 312 340 331 331 338 341 344 347 347 344 341 342 340 345
196 220 206 216 193 215 205 217 223 216 232 227 226 222 199 225 222 258 324 330 298 216 227 213 299 274 308 313 312 319 326 320 324 333 339 342 345 345 345 344 344 346 347
216 186 202 203 205 209 214 228 206 238 220 215 230 221 210 241 228 242 242 262 299 310 274 223 269 289 305 307 299 303 311 309 320 335 329 333 341 343 346 347 348 347 346
242 255 187 222 210 214 215 213 216 231 224 216 215 232 228 237 249 244 249 253 258 269 284 286 293 301 296 292 311 298 304 317 324 324 319 327 336 342 351 347 347 346 344
220 250 227 221 223 227 231 230 207 227 244 223 212 226 243 231 237 242 248 251 258 264 270 275 278 289 290 301 304 301 308 316 322 312 318 328 332 344 353 355 348 346 346
226 221 236 235 224 231 232 236 238 226 233 236 233 237 238 245 254 238 242 250 255 260 269 277 279 287 294 296 302 313 311 302 305 311 319 324 330 337 350 348 349 347 348
231 226 224 239 229 230 235 241 238 236 231 239 239 244 247 245 244 239 244 247 254 268 269 272 285 287 288 287 294 303 308 310 322 316 316 318 323 331 337 334 341 346 352
231 233 225 222 238 238 238 241 241 240 237 238 245 246 248 251 249 253 249 240 248 252 261 271 277 282 289 291 289 297 303 304 307 307 321 316 325 325 325 320 329 345 346
238 238 237 231 228 231 236 244 236 242 249 241 236 246 250 248 249 244 242 253 246 258 259 265 270 276 280 290 291 296 298 304 302 310 314 307 318 322 316 314 320 332 336
224 234 241 239 235 233 239 236 239 241 238 246 242 245 244 250 256 254 249 240 239 242 250 258 265 269 272 285 288 290 290 298 302 306 307 304 320 311 307 299 314 322 326
243 230 236 238 239 244 235 235 239 238 238 249 248 253 243 249 257 265 264 257 255 254 258 263 264 266 271 274 278 282 286 281 287 295 302 305 313 307 303 286 296 320 326
246 246 241 239 242 244 244 242 240 243 245 242 239 248 251 248 241 255 262 256 263 263 260 260 266 277 279 281 281 284 288 293 296 308 303 290 301 302 308 293 305 311 317
248 246 244 242 246 249 244 245 246 245 246 249 252 250 242 248 256 253 245 250 256 255 263 274 279 285 290 288 283 277 268 274 280 284 288 289 294 298 300 300 304 308 315
257 252 244 247 247 250 252 253 246 243 245 249 256 259 257 254 251 250 256 257 256 256 257 258 262 272 274 277 280 275 272 264 269 277 281 286 288 292 297 298 297 306 313
Wind_Speed_850mb
23 22 21 13 19 13 10 16 14 19 21 27 19 17 14 16 14 15 10 13 13 12 13 12 10 11 12 12 13 14 14 16 16 17 17 18 17 17 17 16 15 15 14
24 21 20 17 4 8 20 18 33 14 22 15 17 15 14 11 14 10 4 19 17 15 13 11 10 10 10 11 11 12 13 15 16 16 17 17 18 18 18 18 18 17 16
11 15 15 17 10 10 18 11 24 15 13 15 14 13 12 12 11 11 8 10 15 18 18 15 15 14 13 12 12 13 14 16 17 17 19 19 19 21 21 21 21 21 20
14 18 14 9 12 8 10 7 15 15 11 19 15 14 9 8 8 9 5 6 5 6 17 16 14 15 15 14 14 16 17 18 19 20 20 22 23 24 24 24 24 23 22
17 11 14 8 18 13 0 16 14 17 13 12 14 13 10 7 6 8 5 7 4 8 1 10 19 22 15 14 15 16 18 19 20 21 24 26 26 25 24 24 24 24 25
17 16 13 11 18 11 6 20 12 4 16 5 9 9 7 6 6 4 4 7 4 6 4 4 12 15 18 14 14 16 17 20 21 23 24 25 25 25 25 25 26 26 27
8 18 10 13 17 10 15 13 14 8 6 2 10 6 4 7 6 5 5 6 5 7 2 2 10 1 14 15 13 14 17 19 20 22 24 25 26 26 27 28 30 30 30
11 11 8 10 19 15 9 8 10 8 7 3 8 10 15 14 9 8 4 5 5 4 2 3 1 2 6 3 8 15 16 18 21 24 28 31 32 32 32 35 36 36 37
8 14 20 15 13 18 10 12 13 6 7 1 2 13 13 5 13 8 8 6 7 5 4 2 4 2 1 3 11 20 16 20 25 30 32 36 37 35 35 40 43 44 44
16 9 10 6 13 7 17 11 11 3 6 10 9 7 11 11 14 15 11 3 9 7 3 3 1 2 2 9 13 14 23 24 26 32 35 39 41 36 40 45 49 50 43
14 14 13 12 17 17 20 11 11 12 6 5 7 8 6 6 8 15 19 13 10 7 5 5 3 2 3 3 6 15 17 23 30 35 38 41 40 41 45 49 52 48 44
13 17 15 18 12 9 9 14 14 12 9 13 5 7 6 6 10 10 7 5 10 6 4 3 4 1 2 7 12 23 24 27 36 41 42 43 44 44 49 52 51 47 42
18 22 13 15 13 19 11 16 17 16 15 11 16 14 5 7 5 7 11 4 2 3 2 2 1 2 5 8 18 29 30 37 41 46 44 47 47 47 52 53 45 39 32
13 17 13 17 17 16 15 18 13 16 16 15 17 19 9 10 8 6 12 6 10 11 8 9 8 8 12 15 25 32 26 36 43 42 46 54 50 51 53 46 38 30 30
14 20 16 18 19 17 17 16 15 17 13 19 17 24 22 11 12 12 10 10 15 18 10 7 5 14 14 17 25 33 30 31 37 40 48 56 54 52 50 41 35 32 37
20 34 22 16 16 18 19 17 19 19 20 17 17 23 22 20 16 19 16 15 14 18 24 20 19 21 28 32 28 37 36 34 35 37 49 49 56 51 50 43 35 36 41
30 20 15 30 21 20 20 22 26 13 20 22 27 21 24 33 22 20 21 22 22 21 27 27 27 27 32 43 38 39 34 31 33 40 47 53 52 52 50 50 40 42 49
32 33 28 31 28 27 27 26 24 23 25 22 23 25 27 25 30 33 30 25 24 26 25 34 33 33 32 34 40 44 32 29 29 31 43 48 48 51 52 52 50 51 48
31 32 33 36 31 31 32 32 31 28 28 26 25 25 26 29 34 30 28 27 26 25 23 25 30 29 30 30 31 32 35 33 29 31 38 39 46 47 49 48 49 51 47
36 35 37 40 36 33 33 32 34 36 36 33 32 31 31 31 34 32 31 32 32 32 27 28 29 28 27 27 28 28 30 31 32 33 29 31 41 45 49 43 42 51 46
43 43 41 42 47 43 40 41 40 38 44 41 36 35 36 38 38 39 31 32 30 32 25 29 30 29 27 25 23 28 34 35 35 30 30 30 33 40 49 44 42 53 49
58 53 50 50 49 46 47 51 48 41 45 45 40 42 39 43 47 43 39 36 42 40 43 35 33 33 39 38 31 32 33 35 39 26 34 42 27 30 30 38 44 58 48
44 56 62 57 57 60 53 56 60 59 51 46 47 49 39 42 49 48 46 48 47 49 51 49 51 47 45 41 42 44 37 37 42 42 35 34 27 31 29 38 45 54 51
49 47 54 62 63 63 62 60 61 67 68 68 62 52 55 58 55 45 52 50 54 54 55 56 58 57 54 49 43 40 43 44 43 40 36 43 37 37 33 42 47 51 47
47 56 55 54 60 65 65 66 66 68 68 74 76 77 76 65 65 63 61 56 58 59 50 54 56 57 56 53 51 51 48 43 50 44 35 39 40 36 33 41 49 41 52
42 50 51 51 57 60 62 65 70 67 62 68 69 76 80 86 88 80 77 75 79 81 63 58 58 57 59 62 60 59 63 56 51 54 39 39 38 37 41 35 36 51 50
Wind_Direction_850mb
117 122 127 134 118 125 102 81 78 86 82 88 81 86 99 109 100 92 78 76 79 78 76 73 66 63 57 52 48 41 37 37 36 35 32 30 29 27 28 22 16 16 14
122 122 129 132 173 133 97 130 72 88 104 102 93 94 90 91 108 88 29 38 51 57 57 59 57 53 48 47 48 47 48 48 45 44 41 37 31 27 23 17 12 10 7
128 132 122 133 107 116 92 88 107 91 111 85 102 107 97 96 91 91 91 360 9 34 33 45 52 57 59 57 60 64 60 56 51 46 41 37 31 27 22 16 12 8 4
142 113 130 155 134 141 122 110 86 114 86 86 88 92 106 103 114 117 124 113 128 295 4 29 47 53 56 63 70 70 67 63 57 49 41 35 30 23 17 12 7 1 356
167 144 145 172 137 120 127 118 113 99 122 131 114 102 110 92 134 91 85 110 102 96 25 3 54 38 44 61 72 72 70 65 55 45 37 30 24 17 11 7 1 354 347
151 150 150 137 137 134 172 141 130 144 95 115 120 97 94 106 117 87 116 122 118 85 101 50 3 6 24 53 64 70 66 56 46 37 29 20 11 4 359 354 351 348 344
190 150 169 166 166 136 120 113 96 111 109 5 167 198 110 145 114 145 112 118 80 110 154 350 77 163 342 45 57 62 55 45 33 23 12 1 352 346 340 336 331 327 324
193 188 131 172 186 163 175 173 203 165 107 9 337 291 170 148 110 112 133 145 157 137 110 63 288 342 121 0 339 39 28 21 12 0 353 348 342 337 336 335 334 329 322
181 172 191 215 185 183 163 133 161 255 151 66 113 2 8 112 117 120 103 135 120 127 129 74 128 272 326 153 3 347 358 358 350 346 345 342 338 336 336 337 334 330 326
186 193 186 174 165 219 160 169 204 186 120 135 112 34 40 12 348 118 112 113 133 138 152 140 279 223 317 21 314 332 335 339 345 345 346 345 341 339 335 332 331 333 336
189 179 198 202 187 181 195 192 196 189 178 164 144 129 84 34 6 19 122 116 120 121 107 84 167 187 331 353 350 312 338 343 345 346 346 345 346 338 335 336 337 339 340
190 181 190 203 198 215 203 202 211 214 214 209 193 190 247 90 259 336 80 69 109 130 110 119 116 152 324 331 317 325 333 333 340 341 343 347 346 342 343 341 340 340 341
190 216 226 198 205 202 200 196 219 194 231 211 223 210 239 294 30 350 2 157 30 119 157 163 109 295 313 331 301 312 340 331 331 338 341 344 347 347 344 341 342 340 345
196 220 206 216 193 215 205 217 223 216 232 227 226 222 199 225 222 258 324 330 298 216 227 213 299 274 308 313 312 319 326 320 324 333 339 342 345 345 345 344 344 346 347
216 186 202 203 205 209 214 228 206 238 220 215 230 221 210 241 228 242 242 262 299 310 274 223 269 289 305 307 299 303 311 309 320 335 329 333 341 343 346 347 348 347 346
242 255 187 222 210 214 215 213 216 231 224 216 215 232 228 237 249 244 249 253 258 269 284 286 293 301 296 292 311 298 304 317 324 324 319 327 336 342 351 347 347 346 344
220 250 227 221 223 227 231 230 207 227 244 223 212 226 243 231 237 242 248 251 258 264 270 275 278 289 290 301 304 301 308 316 322 312 318 328 332 344 353 355 348 346 346
226 221 236 235 224 231 232 236 238 226 233 236 233 237 238 245 254 238 242 250 255 260 269 277 279 287 294 296 302 313 311 302 305 311 319 324 330 337 350 348 349 347 348
231 226 224 239 229 230 235 241 238 236 231 239 239 244 247 245 244 239 244 247 254 268 269 272 285 287 288 287 294 303 308 310 322 316 316 318 323 331 337 334 341 346 352
231 233 225 222 238 238 238 241 241 240 237 238 245 246 248 251 249 253 249 240 248 252 261 271 277 282 289 291 289 297 303 304 307 307 321 316 325 325 325 320 329 345 346
238 238 237 231 228 231 236 244 236 242 249 241 236 246 250 248 249 244 242 253 246 258 259 265 270 276 280 290 291 296 298 304 302 310 314 307 318 322 316 314 320 332 336
224 234 241 239 235 233 239 236 239 241 238 246 242 245 244 250 256 254 249 240 239 242 250 258 265 269 272 285 288 290 290 298 302 306 307 304 320 311 307 299 314 322 326
243 230 236 238 239 244 235 235 239 238 238 249 248 253 243 249 257 265 264 257 255 254 258 263 264 266 271 274 278 282 286 281 287 295 302 305 313 307 303 286 296 320 326
246 246 241 239 242 244 244 242 240 243 245 242 239 248 251 248 241 255 262 256 263 263 260 260 266 277 279 281 281 284 288 293 296 308 303 290 301 302 308 293 305 311 317
248 246 244 242 246 249 244 245 246 245 246 249 252 250 242 248 256 253 245 250 256 255 263 274 279 285 290 288 283 277 268 274 280 284 288 289 294 298 300 300 304 308 315
257 252 244 247 247 250 252 253 246 243 245 249 256 259 257 254 251 250 256 257 256 256 257 258 262 272 274 277 280 275 272 264 269 277 281 286 288 292 297 298 297 306 313